Ontario, CA

10:28 AM PST on February 20, 2018 (GMT -0800)
Ontario International

Weather History for KONT - October, 2013

Change the Weather History Date:

Saturday, October 26, 2013

  Actual Average Record
Temperature  
Mean Temperature 72 °F 66 °F  
Max Temperature 90 °F 79 °F 95 °F (2017)
Min Temperature 53 °F 53 °F 47 °F (1998)
Degree Days  
Heating Degree Days 0 2  
Month to date heating degree days 22 29  
Since 1 July heating degree days 22 32  
Cooling Degree Days 7 3  
Month to date cooling degree days 103 120  
Year to date cooling degree days 1972 1671  
Growing Degree Days 22 (Base 50)    
Moisture  
Dew Point 45 °F    
Average Humidity 48    
Maximum Humidity 86    
Minimum Humidity 9    
Precipitation  
Precipitation 0.00 in 0.03 in 1.04 in (2004)
Month to date precipitation 0.09 0.47  
Year to date precipitation 2.92 11.34  
Since 1 July precipitation 0.13  
Snow  
Snow 0.00 in - - ()
Month to date snowfall 0.0  
Year to date snowfall 0.0  
Snow Depth 0.00 in    
Sea Level Pressure  
Sea Level Pressure 30.00 in    
Wind  
Wind Speed 3 mph (WNW)    
Max Wind Speed 14 mph    
Max Gust Speed 17 mph    
Visibility 6 miles    
Events      
T = Trace of Precipitation, MM = Missing Value Source: NWS Daily Summary

Daily Weather History Graph

Daily Weather History Graph

Search for Another Location

Airport or City:

Trip Planner

Search our weather history database for the weather conditions in past years. The results will help you decide how hot, cold, wet, or windy it might be!

Date:

Astronomy

Oct. 26, 2013 Rise Set
Actual Time 7:04 AM PDT 6:03 PM PDT
Civil Twilight 6:39 AM PDT 6:28 PM PDT
Nautical Twilight 6:09 AM PDT 6:58 PM PDT
Astronomical Twilight 5:40 AM PDT 7:27 PM PDT
Moon No Moon Rise 1:21 PM PDT (10/26)
Length of Visible Light 11h 49m
Length of Day
10h 58m
Waning Gibbous, 52% of the Moon is Illuminated
Oct 26
Waning Gibbous
Oct 26
Last Quarter
Nov 3
New
Nov 9
First Quarter
Nov 17
Full

Hourly Weather History & Observations

Time (PDT) Temp. Dew Point Humidity Pressure Visibility Wind Dir Wind Speed Gust Speed Precip Events Conditions
12:53 AM 60.1 °F 53.1 °F 78% 30.05 in 4.0 mi North 4.6 mph - N/A   Haze
1:53 AM 59.0 °F 52.0 °F 78% 30.06 in 4.0 mi Calm Calm - N/A   Haze
2:53 AM 57.0 °F 52.0 °F 83% 30.05 in 3.0 mi Calm Calm - N/A   Haze
3:53 AM 55.9 °F 52.0 °F 87% 30.04 in 3.0 mi Calm Calm - N/A   Mostly Cloudy
4:53 AM 55.9 °F 48.0 °F 75% 30.04 in 6.0 mi NE 3.5 mph - N/A   Haze
5:53 AM 54.0 °F 46.9 °F 77% 30.05 in 5.0 mi Calm Calm - N/A   Haze
6:53 AM 54.0 °F 45.0 °F 72% 30.06 in 8.0 mi Calm Calm - N/A   Partly Cloudy
7:53 AM 54.0 °F 45.0 °F 72% 30.07 in 7.0 mi Calm Calm - N/A   Partly Cloudy
8:53 AM 63.0 °F 46.0 °F 54% 30.07 in 5.0 mi Calm Calm - N/A   Haze
9:53 AM 69.1 °F 43.0 °F 39% 30.06 in 6.0 mi Calm Calm - N/A   Haze
10:53 AM 75.9 °F 37.9 °F 25% 30.04 in 7.0 mi South 3.5 mph - N/A   Partly Cloudy
11:53 AM 80.1 °F 36.0 °F 20% 30.02 in 8.0 mi Calm Calm - N/A   Scattered Clouds
12:53 PM 84.9 °F 28.9 °F 13% 29.98 in 10.0 mi Variable 3.5 mph - N/A   Mostly Cloudy
1:53 PM 88.0 °F 23.0 °F 9% 29.95 in 10.0 mi WNW 4.6 mph - N/A   Mostly Cloudy
2:53 PM 90.0 °F 27.0 °F 10% 29.93 in 10.0 mi West 8.1 mph - N/A   Mostly Cloudy
3:53 PM 84.9 °F 39.9 °F 20% 29.94 in 10.0 mi West 10.4 mph - N/A   Mostly Cloudy
4:53 PM 81.0 °F 46.9 °F 30% 29.93 in 6.0 mi West 15.0 mph - N/A   Haze
5:53 PM 77.0 °F 48.9 °F 37% 29.94 in 6.0 mi WSW 5.8 mph - N/A   Haze
6:53 PM 75.0 °F 46.0 °F 36% 29.95 in 9.0 mi SSW 6.9 mph - N/A   Mostly Cloudy
7:53 PM 70.0 °F 52.0 °F 53% 29.97 in 5.0 mi Calm Calm - N/A   Haze
8:53 PM 69.1 °F 51.1 °F 53% 29.98 in 5.0 mi Calm Calm - N/A   Haze
9:53 PM 70.0 °F 51.1 °F 51% 29.97 in 5.0 mi Calm Calm - N/A   Haze
10:53 PM 66.9 °F 52.0 °F 59% 29.96 in 5.0 mi Calm Calm - N/A   Haze
11:53 PM 63.0 °F 51.1 °F 65% 29.95 in 5.0 mi NNW 3.5 mph - N/A   Haze